Terminal Aerodrome Forecast
Issued by NWS

Home | Current Version | Previous Version | Text Only | Print | Product List | Glossary On
Versions: 1 2 3 4 5 6 7 8 9 10 11 12 13 14 15 16 17 18 19 20 21 22 23 24 25 26 27
000
FTUS46 KMTR 292339
TAFSFO
TAF
KSFO 292339Z 3000/3106 29017G25KT P6SM FEW012 BKN150
     FM300500 29012KT P6SM SCT010 BKN150
      TEMPO 3005/3007 BKN010 OVC150
     FM300700 29010KT 6SM -DZ BR BKN006 OVC010
     FM301300 30012KT P6SM BKN012 OVC030
     FM301700 30008KT P6SM SCT015
     FM302200 30022G30KT P6SM FEW030
     FM310400 29014KT P6SM FEW030=

USA.gov is the U.S. government's official web portal to all federal, state and local government web resources and services.